When you browse on this site, cookies collect data to enhance your experience and personalize the content and advertising you see.
Visit our Privacy Policy to learn more. By continuing to use the site, you agree to this use of cookies and data.
  • în România
  • Lista ţărilor
  • Pe 7 zile
  • Temperatura apei
  • Hartă satelitară
  • Meteo pe hartă
  • Widget-uri
  • user-avatar
    Intrare

    Meteo pe oră la Łęczyca

    Astăzi, 25 Mai, Sâmbătă

    Timp Temperatura Precipitaţii Vânt Presiune Umiditate
    00:00 +12°C° 0 mm 2 m/s 750 mmHg 74%
    01:00 +12°C° 0 mm 2 m/s 749 mmHg 77%
    02:00 +12°C° 0 mm 2 m/s 749 mmHg 77%
    03:00 +10°C° 0 mm 2 m/s 749 mmHg 77%
    04:00 +10°C° 0 mm 2 m/s 749 mmHg 77%
    05:00 +12°C° 0 mm 3 m/s 749 mmHg 74%
    06:00 +13°C° 0 mm 3 m/s 749 mmHg 72%
    07:00 +16°C° 0 mm 3 m/s 750 mmHg 67%
    08:00 +18°C° 0.1 mm 4 m/s 750 mmHg 66%
    09:00 +19°C° 0.1 mm 4 m/s 750 mmHg 64%
    10:00 +21°C° 0.1 mm 4 m/s 750 mmHg 62%
    11:00 +21°C° 0.2 mm 4 m/s 750 mmHg 60%
    12:00 +21°C° 0.2 mm 5 m/s 750 mmHg 59%
    13:00 +22°C° 0 mm 5 m/s 750 mmHg 57%
    14:00 +21°C° 0 mm 5 m/s 750 mmHg 58%
    15:00 +21°C° 0 mm 5 m/s 750 mmHg 60%
    16:00 +20°C° 0 mm 6 m/s 750 mmHg 61%
    17:00 +19°C° 0 mm 5 m/s 750 mmHg 67%
    18:00 +17°C° 0 mm 4 m/s 750 mmHg 73%
    19:00 +16°C° 0 mm 3 m/s 750 mmHg 79%
    20:00 +15°C° 0 mm 2 m/s 750 mmHg 82%
    21:00 +13°C° 0 mm 2 m/s 751 mmHg 86%
    22:00 +12°C° 0 mm 2 m/s 751 mmHg 89%
    23:00 +10°C° 0 mm 2 m/s 751 mmHg 90%

    Mâine, 26 Mai, Duminică

    Timp Temperatura Precipitaţii Vânt Presiune Umiditate
    00:00 +10°C° 0 mm 2 m/s 751 mmHg 90%
    01:00 +10°C° 0 mm 1 m/s 751 mmHg 91%
    02:00 +9°C° 0 mm 2 m/s 751 mmHg 92%
    03:00 +8°C° 0 mm 2 m/s 751 mmHg 93%
    04:00 +8°C° 0 mm 2 m/s 751 mmHg 93%
    05:00 +9°C° 0 mm 2 m/s 751 mmHg 88%
    06:00 +11°C° 0 mm 3 m/s 751 mmHg 82%
    07:00 +12°C° 0 mm 4 m/s 751 mmHg 76%
    08:00 +13°C° 0 mm 4 m/s 751 mmHg 73%
    09:00 +14°C° 0 mm 4 m/s 751 mmHg 70%
    10:00 +15°C° 0 mm 5 m/s 751 mmHg 68%
    11:00 +16°C° 0 mm 5 m/s 751 mmHg 65%
    12:00 +17°C° 0 mm 5 m/s 750 mmHg 63%
    13:00 +19°C° 0 mm 5 m/s 750 mmHg 61%
    14:00 +19°C° 0 mm 5 m/s 750 mmHg 60%
    15:00 +20°C° 0 mm 5 m/s 749 mmHg 60%
    16:00 +20°C° 0 mm 5 m/s 749 mmHg 59%
    17:00 +19°C° 0 mm 4 m/s 749 mmHg 64%
    18:00 +18°C° 0 mm 3 m/s 749 mmHg 69%
    19:00 +18°C° 0 mm 2 m/s 749 mmHg 73%
    20:00 +17°C° 0 mm 3 m/s 749 mmHg 75%
    21:00 +16°C° 0 mm 3 m/s 749 mmHg 78%
    22:00 +14°C° 0 mm 3 m/s 749 mmHg 80%
    23:00 +14°C° 0 mm 3 m/s 749 mmHg 81%

    Poimâine, 27 Mai, Luni

    Timp Temperatura Precipitaţii Vânt Presiune Umiditate
    00:00 +14°C° 0 mm 3 m/s 749 mmHg 81%
    01:00 +13°C° 0 mm 3 m/s 749 mmHg 82%
    02:00 +13°C° 0 mm 3 m/s 748 mmHg 84%
    03:00 +13°C° 0 mm 3 m/s 748 mmHg 86%
    04:00 +13°C° 0 mm 3 m/s 748 mmHg 88%
    05:00 +14°C° 0 mm 4 m/s 748 mmHg 84%
    06:00 +17°C° 0 mm 4 m/s 748 mmHg 79%
    07:00 +19°C° 0 mm 5 m/s 748 mmHg 75%
    08:00 +20°C° 0 mm 5 m/s 747 mmHg 69%
    09:00 +22°C° 0 mm 6 m/s 747 mmHg 64%
    10:00 +23°C° 0 mm 6 m/s 747 mmHg 58%
    11:00 +24°C° 0 mm 6 m/s 747 mmHg 55%
    12:00 +24°C° 0 mm 6 m/s 747 mmHg 53%
    13:00 +26°C° 0 mm 6 m/s 747 mmHg 51%
    14:00 +26°C° 0 mm 5 m/s 747 mmHg 52%
    15:00 +26°C° 0 mm 5 m/s 747 mmHg 54%
    16:00 +26°C° 0 mm 5 m/s 747 mmHg 56%
    17:00 +23°C° 0.1 mm 4 m/s 747 mmHg 64%
    18:00 +21°C° 0.1 mm 3 m/s 747 mmHg 72%
    19:00 +20°C° 0.1 mm 2 m/s 747 mmHg 80%
    20:00 +19°C° 0 mm 2 m/s 747 mmHg 83%
    21:00 +18°C° 0 mm 2 m/s 747 mmHg 86%
    22:00 +17°C° 0 mm 2 m/s 748 mmHg 89%
    23:00 +17°C° 0.1 mm 2 m/s 747 mmHg 91%

    28 Mai, Marţi

    Timp Temperatura Precipitaţii Vânt Presiune Umiditate
    00:00 +16°C° 0.1 mm 2 m/s 747 mmHg 93%
    01:00 +16°C° 0.1 mm 3 m/s 747 mmHg 94%
    02:00 +16°C° 0.8 mm 3 m/s 746 mmHg 95%
    03:00 +16°C° 0.8 mm 3 m/s 746 mmHg 96%
    04:00 +16°C° 0.8 mm 3 m/s 745 mmHg 97%
    05:00 +16°C° 3.1 mm 3 m/s 745 mmHg 96%
    06:00 +16°C° 3.1 mm 3 m/s 745 mmHg 96%
    07:00 +17°C° 3.1 mm 3 m/s 744 mmHg 96%
    08:00 +18°C° 0.7 mm 4 m/s 744 mmHg 90%
    09:00 +20°C° 0.7 mm 4 m/s 744 mmHg 83%
    10:00 +21°C° 0.7 mm 4 m/s 744 mmHg 77%
    11:00 +22°C° 0.5 mm 4 m/s 743 mmHg 74%
    12:00 +23°C° 0.5 mm 5 m/s 743 mmHg 71%
    13:00 +23°C° 0.5 mm 5 m/s 743 mmHg 68%
    14:00 +23°C° 0.9 mm 4 m/s 743 mmHg 71%
    15:00 +22°C° 0.9 mm 3 m/s 743 mmHg 74%
    16:00 +22°C° 0.9 mm 3 m/s 743 mmHg 77%
    17:00 +20°C° 2 mm 3 m/s 743 mmHg 82%
    18:00 +19°C° 2 mm 3 m/s 743 mmHg 86%
    19:00 +17°C° 2 mm 3 m/s 743 mmHg 91%
    20:00 +15°C° 0.3 mm 4 m/s 743 mmHg 92%
    21:00 +13°C° 0.3 mm 4 m/s 743 mmHg 94%
    22:00 +12°C° 0.3 mm 5 m/s 744 mmHg 96%
    23:00 +10°C° 0.1 mm 5 m/s 744 mmHg 95%

    29 Mai, Miercuri

    Timp Temperatura Precipitaţii Vânt Presiune Umiditate
    00:00 +10°C° 0.1 mm 5 m/s 744 mmHg 95%
    01:00 +9°C° 0.1 mm 5 m/s 745 mmHg 94%
    02:00 +9°C° 0 mm 5 m/s 745 mmHg 94%
    03:00 +9°C° 0 mm 5 m/s 745 mmHg 93%
    04:00 +8°C° 0 mm 5 m/s 745 mmHg 93%
    05:00 +10°C° 0 mm 4 m/s 746 mmHg 90%
    06:00 +11°C° 0 mm 4 m/s 746 mmHg 88%
    07:00 +11°C° 0 mm 4 m/s 747 mmHg 85%
    08:00 +13°C° 0 mm 4 m/s 747 mmHg 79%
    09:00 +14°C° 0 mm 4 m/s 748 mmHg 72%
    10:00 +15°C° 0 mm 4 m/s 748 mmHg 66%
    11:00 +17°C° 0 mm 4 m/s 748 mmHg 64%
    12:00 +18°C° 0 mm 3 m/s 748 mmHg 63%
    13:00 +19°C° 0 mm 3 m/s 748 mmHg 61%
    14:00 +17°C° 0.3 mm 4 m/s 748 mmHg 69%
    15:00 +15°C° 0.3 mm 4 m/s 749 mmHg 78%
    16:00 +14°C° 0.3 mm 4 m/s 749 mmHg 87%
    17:00 +14°C° 0.6 mm 4 m/s 749 mmHg 89%
    18:00 +13°C° 0.6 mm 3 m/s 749 mmHg 91%
    19:00 +14°C° 0.6 mm 2 m/s 750 mmHg 94%
    20:00 +14°C° 0.6 mm 2 m/s 750 mmHg 94%
    21:00 +13°C° 0.6 mm 2 m/s 751 mmHg 95%
    22:00 +13°C° 0.6 mm 2 m/s 751 mmHg 95%
    23:00 +12°C° 0.7 mm 3 m/s 752 mmHg 95%

    30 Mai, Joi

    Timp Temperatura Precipitaţii Vânt Presiune Umiditate
    00:00 +12°C° 0.7 mm 4 m/s 752 mmHg 95%
    01:00 +11°C° 0.7 mm 4 m/s 752 mmHg 96%
    02:00 +10°C° 0.4 mm 5 m/s 753 mmHg 95%
    03:00 +9°C° 0.4 mm 5 m/s 753 mmHg 94%
    04:00 +9°C° 0.4 mm 6 m/s 754 mmHg 93%
    05:00 +9°C° 0 mm 5 m/s 754 mmHg 89%
    06:00 +9°C° 0 mm 5 m/s 755 mmHg 85%
    07:00 +9°C° 0 mm 5 m/s 755 mmHg 81%
    08:00 +10°C° 0 mm 5 m/s 756 mmHg 74%
    09:00 +12°C° 0 mm 5 m/s 756 mmHg 66%
    10:00 +14°C° 0 mm 5 m/s 756 mmHg 59%
    11:00 +14°C° 0 mm 5 m/s 756 mmHg 57%
    12:00 +15°C° 0 mm 4 m/s 756 mmHg 54%
    13:00 +17°C° 0 mm 4 m/s 756 mmHg 51%
    14:00 +17°C° 0 mm 4 m/s 756 mmHg 52%
    15:00 +17°C° 0 mm 3 m/s 756 mmHg 52%
    16:00 +17°C° 0 mm 3 m/s 756 mmHg 53%
    17:00 +16°C° 0 mm 2 m/s 756 mmHg 58%
    18:00 +15°C° 0 mm 2 m/s 756 mmHg 63%
    19:00 +15°C° 0 mm 1 m/s 757 mmHg 67%
    20:00 +14°C° 0 mm 1 m/s 757 mmHg 68%
    21:00 +13°C° 0 mm 2 m/s 757 mmHg 68%
    22:00 +12°C° 0 mm 2 m/s 757 mmHg 68%
    23:00 +11°C° 0 mm 3 m/s 757 mmHg 68%
    Arată mai mult